Location: Unspecified
(35.0317°N, 0.0000°E)
Time: 13:37:32
(UTC+00:00)

N. Korean satellite - Visible Passes

Search period start: 23 October 2019 00:00
Search period end: 02 November 2019 00:00
Orbit: 455 x 508 km, 97.2° (Epoch: 22 October)

Date Brightness Start Highest point End Pass type
(mag) Time Alt. Az. Time Alt. Az. Time Alt. Az.
23 Oct 9.5 05:09:56 10° NE 05:12:50 22° E 05:15:44 10° SSE visible
24 Oct 10.6 04:46:58 10° E 04:47:23 10° E 04:47:48 10° E visible
25 Oct 9.8 17:58:33 10° SW 18:01:02 19° W 18:03:32 10° NW visible
26 Oct 8.4 05:26:54 10° NNE 05:30:21 37° E 05:33:48 10° SSE visible
26 Oct 8.0 17:32:21 10° S 17:35:37 42° W 17:38:56 10° NNW visible
27 Oct 9.9 05:02:24 10° NE 05:04:57 18° E 05:07:29 10° SE visible
28 Oct 10.4 18:17:38 10° WSW 18:18:33 11° W 18:19:28 10° WNW visible
29 Oct 7.1 05:44:07 10° NNE 05:47:48 69° E 05:51:29 10° S visible
29 Oct 9.3 17:50:15 10° SSW 17:53:04 24° W 17:55:57 10° NW visible
30 Oct 8.9 05:19:09 10° NE 05:22:27 30° E 05:25:44 10° SSE visible
31 Oct 10.1 04:54:57 10° ENE 04:57:00 14° E 04:59:03 10° SE visible
01 Nov 10.0 18:08:39 10° SW 18:10:33 14° W 18:12:28 10° WNW visible
